Minneapolis, MN

4:47 PM CST on February 21, 2017 (GMT -0600)
Crystal

Weather History for KMIC - September, 2013

Change the Weather History Date:

Saturday, September 14, 2013

  Actual Average Record
Temperature  
Mean Temperature 60 °F -  
Max Temperature 73 °F 72 °F 84 °F (2015)
Min Temperature 50 °F 51 °F 36 °F (2007)
Degree Days  
Heating Degree Days 4    
Growing Degree Days 10 (Base 50)    
Moisture  
Dew Point 49 °F    
Average Humidity 71    
Maximum Humidity 94    
Minimum Humidity 38    
Precipitation  
Precipitation 0.37 in - - ()
Sea Level Pressure  
Sea Level Pressure 29.98 in    
Wind  
Wind Speed 6 mph (SSE)    
Max Wind Speed 15 mph    
Max Gust Speed 22 mph    
Visibility 8 miles    
Events Rain    
Averages and records for this station are not official NWS values.
T = Trace of Precipitation, MM = Missing Value Source: NWS Daily Summary

Daily Weather History Graph

Daily Weather History Graph

Search for Another Location

Airport or City:

Trip Planner

Search our weather history database for the weather conditions in past years. The results will help you decide how hot, cold, wet, or windy it might be!

Date:

Astronomy

Sep. 14, 2013 Rise Set
Actual Time 6:51 AM CDT 7:25 PM CDT
Civil Twilight 6:21 AM CDT 7:55 PM CDT
Nautical Twilight 5:46 AM CDT 8:30 PM CDT
Astronomical Twilight 5:10 AM CDT 9:06 PM CDT
Moon 4:17 PM CDT (9/14) 1:12 AM CDT (9/14)
Length of Visible Light 13h 33m
Length of Day
12h 34m
Waxing Gibbous, 72% of the Moon is Illuminated
Sep 14
Waxing Gibbous
Sep 19
Full
Sep 26
Last Quarter
Oct 4
New
Oct 11
First Quarter

Hourly Weather History & Observations

Time (CDT) Temp. Dew Point Humidity Pressure Visibility Wind Dir Wind Speed Gust Speed Precip Events Conditions
12:53 AM 54.0 °F 44.1 °F 69% 30.08 in 10.0 mi South 4.6 mph - N/A   Clear
1:53 AM 54.0 °F 43.0 °F 66% 30.08 in 10.0 mi South 4.6 mph - N/A   Clear
2:53 AM 51.1 °F 43.0 °F 74% 30.08 in 10.0 mi Calm Calm - N/A   Clear
3:53 AM 51.1 °F 43.0 °F 74% 30.06 in 10.0 mi South 4.6 mph - N/A   Clear
4:53 AM 50.0 °F 43.0 °F 77% 30.06 in 10.0 mi South 3.5 mph - N/A   Clear
5:53 AM 50.0 °F 43.0 °F 77% 30.06 in 10.0 mi SSE 3.5 mph - N/A   Clear
6:53 AM 50.0 °F 43.0 °F 77% 30.06 in 10.0 mi South 4.6 mph - N/A   Clear
7:53 AM 54.0 °F 44.1 °F 69% 30.06 in 10.0 mi South 5.8 mph - N/A   Clear
8:53 AM 60.1 °F 43.0 °F 53% 30.04 in 10.0 mi SSW 11.5 mph - N/A   Clear
9:53 AM 64.0 °F 43.0 °F 46% 30.03 in 10.0 mi South 11.5 mph - N/A   Clear
10:53 AM 69.1 °F 44.1 °F 40% 30.01 in 10.0 mi South 11.5 mph - N/A   Clear
11:53 AM 71.1 °F 44.1 °F 38% 29.99 in 10.0 mi SSW 11.5 mph 19.6 mph N/A   Clear
12:53 PM 71.1 °F 45.0 °F 39% 29.97 in 10.0 mi South 9.2 mph 17.3 mph N/A   Clear
1:53 PM 71.1 °F 45.0 °F 39% 29.95 in 10.0 mi SSW 15.0 mph 21.9 mph N/A   Clear
2:53 PM 71.1 °F 45.0 °F 39% 29.94 in 10.0 mi SSW 9.2 mph - N/A   Mostly Cloudy
3:53 PM 71.1 °F 46.0 °F 41% 29.92 in 10.0 mi South 5.8 mph - N/A   Mostly Cloudy
4:53 PM 64.9 °F 55.9 °F 73% 29.92 in 10.0 mi Calm Calm - 0.01 in Rain Light Rain
5:53 PM 63.0 °F 55.0 °F 75% 29.91 in 9.0 mi South 5.8 mph - 0.02 in Rain Light Rain
6:53 PM 61.0 °F 55.0 °F 81% 29.91 in 7.0 mi NNE 3.5 mph - 0.04 in Rain Light Rain
7:53 PM 59.0 °F 55.9 °F 90% 29.94 in 2.5 mi ENE 4.6 mph - 0.12 in Rain Rain
8:00 PM 59.0 °F 55.4 °F 88% 29.93 in 3.0 mi East 5.8 mph - 0.02 in Rain Rain
8:53 PM 57.9 °F 55.0 °F 90% 29.94 in 8.0 mi East 5.8 mph - 0.15 in Rain Light Rain
9:15 PM 57.2 °F 55.4 °F 94% 29.93 in 6.0 mi East 5.8 mph - 0.01 in Rain Light Rain
9:36 PM 57.2 °F 55.4 °F 94% 29.93 in 6.0 mi East 5.8 mph - 0.01 in Rain Light Rain
9:43 PM 57.2 °F 55.4 °F 94% 29.93 in 5.0 mi ESE 6.9 mph - 0.01 in Rain Light Rain
9:53 PM 57.9 °F 55.0 °F 90% 29.93 in 5.0 mi ESE 8.1 mph - 0.02 in Rain Light Rain
10:53 PM 57.0 °F 54.0 °F 89% 29.91 in 5.0 mi ESE 8.1 mph - 0.00 in Rain Light Rain
11:37 PM 57.2 °F 53.6 °F 88% 29.90 in 10.0 mi SE 6.9 mph - 0.01 in   Overcast
11:53 PM 57.0 °F 54.0 °F 89% 29.90 in 9.0 mi SE 9.2 mph - 0.01 in   Overcast